Station Historical Data
Daily Summary for March 30, 2012 Units:  Metric    English   Both
« Previous Day
Next Day »
Daily Weekly Monthly Yearly Custom
  High: Low: Average:
Temperature: 20.4 °C 16.2 °C 17.7 °C
Dew Point: 18.2 °C 14.8 °C 16.1 °C
Humidity: 94% 82% 90%
Wind Speed: 20.9km/h 0km/h 2.9km/h
Wind Gust: 20.9km/h - -
Wind- - South
Pressure: 1013.1 hPa 1008 hPa -
Precipitation: 7.62 mm    
Historical Graphs
 
 
Tabular Data for March 30, 2012
Time Temperature Dew Point Pressure Wind Wind Speed Wind Gust Humidity Rainfall Rate (Hourly) Conditions
00:00 18.2 °C 15.3 °C 1012.4 hPa SSE 1.6 km/h 3.2 km/h 83% 0 mm
00:02 18.3 °C 15.3 °C 1012.4 hPa Calm   1.6 km/h 83% 0 mm
00:07 18.4 °C 15.4 °C 1012.4 hPa SSE 1.6 km/h 3.2 km/h 83% 0 mm
00:12 18.4 °C 15.5 °C 1012.4 hPa SSE 1.6 km/h 1.6 km/h 83% 0 mm
00:17 18.4 °C 15.3 °C 1012.4 hPa SSE 1.6 km/h 3.2 km/h 82% 0 mm
00:22 18.4 °C 15.4 °C 1012.4 hPa SSE 1.6 km/h 3.2 km/h 83% 0 mm
00:27 18.4 °C 15.5 °C 1012.1 hPa SSE 1.6 km/h 3.2 km/h 83% 0 mm
00:32 18.4 °C 15.4 °C 1012.4 hPa SSE 1.6 km/h 3.2 km/h 83% 0 mm
00:37 18.2 °C 15.5 °C 1012.1 hPa SSE 3.2 km/h 3.2 km/h 84% 0 mm
00:42 18.2 °C 15.4 °C 1012.1 hPa South 1.6 km/h 3.2 km/h 84% 0 mm
00:47 18.2 °C 15.5 °C 1012.1 hPa SSE 1.6 km/h 3.2 km/h 84% 0 mm
00:52 18.2 °C 15.5 °C 1012.1 hPa SSE 1.6 km/h 1.6 km/h 84% 0 mm
00:58 18.2 °C 15.4 °C 1012.1 hPa SSE 1.6 km/h 1.6 km/h 84% 0 mm
01:03 18.1 °C 15.4 °C 1012.1 hPa SE 1.6 km/h 1.6 km/h 84% 0 mm
01:08 18 °C 15.4 °C 1012.1 hPa SSE 1.6 km/h 3.2 km/h 85% 0 mm
01:13 18 °C 15.4 °C 1012.1 hPa SSE 1.6 km/h 3.2 km/h 85% 0 mm
01:18 18 °C 15.4 °C 1012.1 hPa SSE 1.6 km/h 3.2 km/h 85% 0 mm
01:23 17.9 °C 15.4 °C 1011.7 hPa SSE 4.8 km/h 4.8 km/h 85% 0 mm
01:28 17.9 °C 15.3 °C 1011.7 hPa SSE 3.2 km/h 4.8 km/h 85% 0 mm
01:33 17.7 °C 15.3 °C 1011.7 hPa SE 1.6 km/h 3.2 km/h 86% 0 mm
01:38 17.7 °C 15.5 °C 1011.7 hPa Calm   3.2 km/h 87% 0 mm
01:43 17.7 °C 15.6 °C 1011.7 hPa SSE 1.6 km/h 1.6 km/h 87% 0 mm
01:48 17.7 °C 15.3 °C 1011.7 hPa Calm   1.6 km/h 86% 0 mm
01:53 17.5 °C 15.3 °C 1011.4 hPa SSE 1.6 km/h 1.6 km/h 87% 0 mm
01:58 17.3 °C 15.2 °C 1011.4 hPa SE 1.6 km/h 1.6 km/h 87% 0 mm
02:03 17.2 °C 15.2 °C 1011.4 hPa SE 1.6 km/h 1.6 km/h 88% 0 mm
02:08 17.1 °C 15.1 °C 1011.4 hPa Calm   3.2 km/h 88% 0 mm
02:13 17.1 °C 15.3 °C 1011.4 hPa SSE 1.6 km/h 3.2 km/h 89% 0 mm
02:18 17.2 °C 15.3 °C 1011.4 hPa SSE 1.6 km/h 1.6 km/h 89% 0 mm
02:23 17.2 °C 15.3 °C 1011.4 hPa Calm   1.6 km/h 89% 0 mm
02:28 17.1 °C 15.3 °C 1011.4 hPa Calm   1.6 km/h 89% 0 mm
02:33 17.1 °C 15.2 °C 1011.4 hPa Calm   1.6 km/h 89% 0 mm
02:38 17 °C 15.2 °C 1011.4 hPa Calm     89% 0 mm
02:43 16.9 °C 15.1 °C 1011.4 hPa Calm     89% 0 mm
02:48 16.8 °C 15.2 °C 1011.4 hPa Calm     90% 0 mm
02:53 16.8 °C 15.2 °C 1011.4 hPa Calm     90% 0 mm
02:58 16.8 °C 15.2 °C 1011.4 hPa SSE 1.6 km/h 1.6 km/h 90% 0 mm
03:04 16.8 °C 15.1 °C 1011.4 hPa SE 3.2 km/h 4.8 km/h 90% 0 mm
03:09 16.7 °C 15.1 °C 1011.4 hPa SSE 3.2 km/h 3.2 km/h 90% 0 mm
03:14 16.7 °C 15 °C 1011.4 hPa SE 3.2 km/h 3.2 km/h 90% 0 mm
03:19 16.7 °C 15 °C 1011.4 hPa SE 1.6 km/h 3.2 km/h 90% 0 mm
03:24 16.6 °C 15.1 °C 1011.4 hPa SE 3.2 km/h 3.2 km/h 91% 0 mm
03:29 16.6 °C 15.1 °C 1011.4 hPa SSE 1.6 km/h 3.2 km/h 91% 0 mm
03:34 16.6 °C 15.1 °C 1011.1 hPa SSE 1.6 km/h 3.2 km/h 91% 0 mm
03:39 16.6 °C 15.1 °C 1011.1 hPa SSE 1.6 km/h 1.6 km/h 91% 0 mm
03:44 16.5 °C 15 °C 1011.1 hPa SSE 1.6 km/h 1.6 km/h 91% 0 mm
03:49 16.4 °C 14.9 °C 1011.1 hPa SSE 3.2 km/h 3.2 km/h 91% 0 mm
03:54 16.3 °C 14.8 °C 1011.1 hPa SE 3.2 km/h 3.2 km/h 91% 0 mm
03:59 16.2 °C 14.8 °C 1011.1 hPa SSE 1.6 km/h 4.8 km/h 91% 0 mm
04:04 16.2 °C 14.9 °C 1011.1 hPa SE 3.2 km/h 4.8 km/h 92% 0 mm
04:09 16.3 °C 15.1 °C 1011.1 hPa SSE 3.2 km/h 3.2 km/h 92% 0 mm
04:14 16.4 °C 15.2 °C 1011.1 hPa Calm   1.6 km/h 92% 0 mm
04:19 16.5 °C 15.2 °C 1011.1 hPa SSE 1.6 km/h 1.6 km/h 92% 0 mm
04:24 16.6 °C 15.1 °C 1011.1 hPa Calm     91% 0 mm
04:29 16.6 °C 15.1 °C 1011.1 hPa Calm     91% 0 mm
04:34 16.7 °C 15.2 °C 1011.1 hPa Calm     91% 0 mm
04:40 16.7 °C 15.3 °C 1011.1 hPa ESE 1.6 km/h 1.6 km/h 91% 0 mm
04:45 16.8 °C 15.1 °C 1011.1 hPa SE 1.6 km/h 3.2 km/h 90% 0 mm
04:50 16.7 °C 15.1 °C 1011.1 hPa Calm     90% 0 mm
04:55 16.7 °C 15.2 °C 1011.4 hPa Calm     91% 0 mm
05:00 16.6 °C 15.1 °C 1011.4 hPa Calm     91% 0 mm
05:05 16.4 °C 15 °C 1011.4 hPa Calm     91% 0 mm
05:10 16.6 °C 15.3 °C 1011.4 hPa Calm     92% 0 mm
05:15 16.7 °C 15.3 °C 1011.4 hPa Calm     91% 0 mm
05:20 16.8 °C 15.3 °C 1011.4 hPa Calm     91% 0 mm
05:25 16.8 °C 15.3 °C 1011.4 hPa Calm     91% 0 mm
05:30 16.9 °C 15.4 °C 1011.4 hPa SE 1.6 km/h 1.6 km/h 91% 0 mm
05:35 16.9 °C 15.4 °C 1011.4 hPa Calm   1.6 km/h 91% 0 mm
05:40 16.9 °C 15.4 °C 1011.4 hPa SSE 1.6 km/h 1.6 km/h 91% 0 mm
05:45 16.8 °C 15.3 °C 1011.4 hPa SSE 3.2 km/h 3.2 km/h 91% 0 mm
05:46 16.8 °C 15.3 °C 1011.4 hPa SSE 3.2 km/h 3.2 km/h 91% 0 mm
05:51 16.9 °C 15.4 °C 1011.4 hPa SSE 3.2 km/h 4.8 km/h 91% 0 mm
05:56 16.9 °C 15.3 °C 1011.4 hPa SE 4.8 km/h 4.8 km/h 90% 0 mm
06:01 16.9 °C 15.3 °C 1011.4 hPa SSE 3.2 km/h 4.8 km/h 90% 0 mm
06:06 16.9 °C 15.2 °C 1011.4 hPa Calm   3.2 km/h 90% 0 mm
06:11 16.8 °C 15.1 °C 1011.4 hPa Calm     90% 0 mm
06:16 16.7 °C 15.3 °C 1011.4 hPa Calm     91% 0 mm
06:21 16.6 °C 15.1 °C 1011.4 hPa South 1.6 km/h 3.2 km/h 91% 0 mm
06:26 16.6 °C 15.1 °C 1011.4 hPa SSE 1.6 km/h 3.2 km/h 91% 0 mm
06:31 16.5 °C 15 °C 1011.4 hPa SE 1.6 km/h 1.6 km/h 91% 0 mm
06:36 16.4 °C 15 °C 1011.4 hPa Calm   1.6 km/h 91% 0 mm
06:41 16.4 °C 15.2 °C 1011.7 hPa Calm   1.6 km/h 92% 0 mm
06:46 16.5 °C 15.2 °C 1011.7 hPa SE 1.6 km/h 1.6 km/h 92% 0 mm
06:51 16.5 °C 15.2 °C 1011.7 hPa SE 3.2 km/h 3.2 km/h 92% 0 mm
06:57 16.6 °C 15.3 °C 1011.7 hPa ESE 1.6 km/h 3.2 km/h 92% 0 mm
07:02 16.6 °C 15.1 °C 1011.7 hPa Calm   1.6 km/h 91% 0 mm
07:07 16.5 °C 15 °C 1011.7 hPa Calm     91% 0 mm
07:12 16.4 °C 15 °C 1012.1 hPa SSE 1.6 km/h 1.6 km/h 91% 0 mm
07:17 16.5 °C 15.2 °C 1012.1 hPa South 1.6 km/h 1.6 km/h 92% 0 mm
07:22 16.4 °C 15.2 °C 1012.1 hPa Calm     92% 0 mm
07:27 16.4 °C 15.2 °C 1012.1 hPa Calm   1.6 km/h 92% 0 mm
07:32 16.4 °C 15.1 °C 1012.1 hPa South 1.6 km/h 1.6 km/h 92% 0 mm
07:37 16.4 °C 15.1 °C 1012.1 hPa Calm   1.6 km/h 92% 0 mm
07:43 16.3 °C 15.1 °C 1012.1 hPa Calm     92% 0 mm
07:48 16.3 °C 15.1 °C 1012.1 hPa Calm     92% 0 mm
07:53 16.4 °C 15.1 °C 1012.1 hPa SE 1.6 km/h 1.6 km/h 92% 0 mm
07:58 16.4 °C 15.2 °C 1012.1 hPa Calm     92% 0 mm
08:03 16.5 °C 15.2 °C 1012.1 hPa Calm     92% 0 mm
08:08 16.6 °C 15.3 °C 1012.1 hPa Calm     92% 0 mm
08:13 16.6 °C 15.3 °C 1012.1 hPa Calm     92% 0 mm
08:18 16.6 °C 15.3 °C 1012.1 hPa Calm     92% 0 mm
08:23 16.7 °C 15.4 °C 1012.1 hPa Calm     92% 0 mm
08:28 16.7 °C 15.4 °C 1012.4 hPa Calm     92% 0 mm
08:33 16.7 °C 15.4 °C 1012.4 hPa Calm     92% 0 mm
08:38 16.8 °C 15.6 °C 1012.4 hPa Calm     92% 0 mm
08:43 16.9 °C 15.6 °C 1012.4 hPa Calm     92% 0 mm
08:48 16.9 °C 15.7 °C 1012.8 hPa Calm   1.6 km/h 92% 0 mm
08:53 17.1 °C 15.8 °C 1012.8 hPa SSE 4.8 km/h 4.8 km/h 92% 0 mm
08:58 17.2 °C 15.7 °C 1012.8 hPa SSW 4.8 km/h 8 km/h 91% 0 mm
09:03 17.4 °C 15.9 °C 1012.8 hPa South 6.4 km/h 8 km/h 91% 0 mm
09:08 17.4 °C 15.9 °C 1012.8 hPa South 6.4 km/h 8 km/h 91% 0 mm
09:13 17.6 °C 15.9 °C 1012.8 hPa South 4.8 km/h 6.4 km/h 90% 0 mm
09:18 17.7 °C 16 °C 1012.8 hPa South 3.2 km/h 6.4 km/h 90% 0 mm
09:23 17.7 °C 16.1 °C 1012.4 hPa SSW 3.2 km/h 4.8 km/h 90% 0 mm
09:28 17.8 °C 16.2 °C 1012.4 hPa South 4.8 km/h 6.4 km/h 90% 0 mm
09:33 17.9 °C 16.3 °C 1012.4 hPa SSW 3.2 km/h 4.8 km/h 90% 0 mm
09:38 18.1 °C 16.4 °C 1012.4 hPa SW 6.4 km/h 8 km/h 90% 0 mm
09:44 18.2 °C 16.6 °C 1012.8 hPa SSW 3.2 km/h 4.8 km/h 90% 0 mm
09:49 18.4 °C 16.8 °C 1012.8 hPa SW 6.4 km/h 6.4 km/h 90% 0 mm
09:54 18.7 °C 17 °C 1012.8 hPa SW 3.2 km/h 9.7 km/h 90% 0 mm
09:59 18.7 °C 16.7 °C 1012.8 hPa SSW 4.8 km/h 11.3 km/h 88% 0 mm
10:04 18.7 °C 16.7 °C 1012.8 hPa SW 3.2 km/h 9.7 km/h 88% 0 mm
10:09 18.8 °C 16.8 °C 1012.8 hPa SSW 3.2 km/h 8 km/h 88% 0 mm
10:14 18.8 °C 16.8 °C 1012.8 hPa WNW 3.2 km/h 6.4 km/h 88% 0 mm
10:19 18.8 °C 16.8 °C 1012.4 hPa West 3.2 km/h 6.4 km/h 88% 0 mm
10:24 18.8 °C 16.8 °C 1012.4 hPa SW 3.2 km/h 8 km/h 88% 0 mm
10:29 18.9 °C 16.8 °C 1012.8 hPa WSW 3.2 km/h 4.8 km/h 88% 0 mm
10:34 18.9 °C 16.8 °C 1012.8 hPa West 4.8 km/h 8 km/h 88% 0 mm
10:39 19 °C 16.8 °C 1012.8 hPa WSW 4.8 km/h 8 km/h 87% 0 mm
10:44 19 °C 16.9 °C 1012.8 hPa SW 4.8 km/h 6.4 km/h 88% 0 mm
10:49 18.9 °C 16.9 °C 1012.4 hPa WSW 4.8 km/h 4.8 km/h 88% 0 mm
10:50 18.9 °C 16.8 °C 1012.4 hPa West 3.2 km/h 4.8 km/h 88% 0 mm
10:55 18.8 °C 16.6 °C 1012.4 hPa WSW 3.2 km/h 6.4 km/h 87% 0 mm
11:00 18.9 °C 16.7 °C 1012.8 hPa WSW 6.4 km/h 9.7 km/h 87% 0 mm
11:05 18.9 °C 16.7 °C 1012.4 hPa WSW 4.8 km/h 8 km/h 87% 0 mm
11:11 18.9 °C 16.8 °C 1012.4 hPa WSW 8 km/h 8 km/h 88% 0 mm
11:16 18.7 °C 16.5 °C 1012.4 hPa SW 3.2 km/h 9.7 km/h 87% 0 mm
11:21 18.7 °C 16.4 °C 1012.4 hPa WSW 6.4 km/h 8 km/h 87% 0 mm
11:25 18.6 °C 16.4 °C 1012.8 hPa West 4.8 km/h 8 km/h 87% 0 mm
11:31 18.4 °C 16.4 °C 1012.8 hPa WSW 4.8 km/h 6.4 km/h 88% 0 mm
11:36 18.3 °C 16.5 °C 1012.8 hPa WSW 6.4 km/h 9.7 km/h 89% 0 mm
11:41 18.2 °C 16.3 °C 1012.8 hPa West 4.8 km/h 6.4 km/h 89% 0 mm
11:46 18.1 °C 16.4 °C 1012.8 hPa West 3.2 km/h 4.8 km/h 90% 0 mm
11:51 18 °C 16.3 °C 1012.8 hPa West 3.2 km/h 4.8 km/h 90% 0 mm
11:56 17.9 °C 16.3 °C 1012.8 hPa SW 3.2 km/h 6.4 km/h 90% 0 mm
12:01 17.8 °C 16.2 °C 1013.1 hPa WSW 4.8 km/h 6.4 km/h 90% 0 mm
12:06 17.8 °C 16.1 °C 1013.1 hPa WSW 4.8 km/h 9.7 km/h 90% 0 mm
12:11 17.7 °C 16.2 °C 1013.1 hPa WSW 4.8 km/h 6.4 km/h 91% 0 mm
12:16 17.6 °C 16.1 °C 1013.1 hPa SW 4.8 km/h 11.3 km/h 91% 0 mm
12:22 17.4 °C 15.9 °C 1013.1 hPa WSW 4.8 km/h 9.7 km/h 91% 0 mm
12:27 17.4 °C 16.1 °C 1013.1 hPa Calm   3.2 km/h 92% 4.06 mm
12:32 17.2 °C 15.7 °C 1013.1 hPa West 1.6 km/h 3.2 km/h 91% 2.03 mm
12:37 17.1 °C 15.6 °C 1012.8 hPa West 1.6 km/h 1.6 km/h 91% 2.03 mm
12:42 17 °C 15.7 °C 1012.8 hPa NW 1.6 km/h 3.2 km/h 92% 3.81 mm
12:43 17 °C 15.7 °C 1012.8 hPa NW 1.6 km/h 3.2 km/h 92% 3.81 mm
12:48 16.9 °C 15.6 °C 1012.8 hPa NW 1.6 km/h 4.8 km/h 92% 4.06 mm
12:53 16.8 °C 15.7 °C 1012.8 hPa Calm   1.6 km/h 93% 3.81 mm
12:58 16.8 °C 15.7 °C 1012.8 hPa Calm   3.2 km/h 93% 4.57 mm
13:03 16.8 °C 15.7 °C 1012.8 hPa West 1.6 km/h 1.6 km/h 93% 3.81 mm
13:08 16.7 °C 15.6 °C 1012.8 hPa Calm   3.2 km/h 93% 3.05 mm
13:13 16.7 °C 15.7 °C 1012.8 hPa West 1.6 km/h 4.8 km/h 94% 4.06 mm
13:18 16.7 °C 15.7 °C 1012.8 hPa Calm   3.2 km/h 94% 7.87 mm
13:23 16.7 °C 15.7 °C 1012.8 hPa West 1.6 km/h 1.6 km/h 94% 7.37 mm
13:28 16.6 °C 15.7 °C 1012.8 hPa WNW 3.2 km/h 4.8 km/h 94% 7.62 mm
13:33 16.6 °C 15.7 °C 1012.4 hPa Calm   1.6 km/h 94% 5.33 mm
13:38 16.7 °C 15.7 °C 1012.4 hPa Calm   1.6 km/h 94% 3.56 mm
13:43 16.6 °C 15.7 °C 1012.4 hPa West 3.2 km/h 4.8 km/h 94% 2.29 mm
13:49 16.6 °C 15.6 °C 1012.4 hPa Calm   1.6 km/h 94% 2.29 mm
13:54 16.6 °C 15.7 °C 1012.1 hPa WNW 1.6 km/h 4.8 km/h 94% 1.52 mm
13:59 16.6 °C 15.7 °C 1012.1 hPa Calm   1.6 km/h 94% 2.29 mm
14:04 16.7 °C 15.7 °C 1012.1 hPa Calm   3.2 km/h 94% 2.29 mm
14:09 16.7 °C 15.7 °C 1011.7 hPa Calm   1.6 km/h 94% 2.03 mm
14:14 16.8 °C 15.8 °C 1011.7 hPa Calm   1.6 km/h 94% 1.78 mm
14:19 16.8 °C 15.8 °C 1011.4 hPa ESE 1.6 km/h 3.2 km/h 94% 1.27 mm
14:24 16.8 °C 15.8 °C 1011.4 hPa East 3.2 km/h 4.8 km/h 94% 1.27 mm
14:29 16.9 °C 16 °C 1011.4 hPa East 3.2 km/h 6.4 km/h 94% 1.27 mm
14:34 17 °C 16 °C 1011.1 hPa SE 6.4 km/h 6.4 km/h 94% 1.27 mm
14:39 17.1 °C 16.1 °C 1011.1 hPa SE 4.8 km/h 9.7 km/h 94% 1.27 mm
14:44 17.1 °C 16.1 °C 1011.1 hPa ESE 6.4 km/h 8 km/h 94% 1.02 mm
14:49 17.2 °C 16.2 °C 1010.7 hPa ESE 8 km/h 11.3 km/h 94% 0 mm
14:54 17.2 °C 16 °C 1010.7 hPa ESE 11.3 km/h 11.3 km/h 93% 0 mm
14:59 17.2 °C 16.1 °C 1010.7 hPa East 8 km/h 9.7 km/h 93% 0 mm
15:05 17.4 °C 16.4 °C 1010.4 hPa ESE 8 km/h 11.3 km/h 94% 0 mm
15:10 17.6 °C 16.6 °C 1010.4 hPa ESE 6.4 km/h 11.3 km/h 94% 0 mm
15:15 17.7 °C 16.6 °C 1010.4 hPa East 9.7 km/h 12.9 km/h 93% 0 mm
15:20 17.8 °C 16.6 °C 1010.4 hPa ESE 9.7 km/h 12.9 km/h 93% 0 mm
15:25 17.9 °C 16.7 °C 1010.4 hPa SE 8 km/h 11.3 km/h 93% 0 mm
15:30 18 °C 16.8 °C 1010 hPa SE 6.4 km/h 12.9 km/h 93% 0 mm
15:35 18.3 °C 17.2 °C 1010 hPa ESE 11.3 km/h 12.9 km/h 93% 0 mm
15:40 18.4 °C 17.1 °C 1010 hPa ESE 8 km/h 16.1 km/h 92% 0 mm
15:45 18.7 °C 17.3 °C 1009.7 hPa ESE 11.3 km/h 16.1 km/h 92% 0 mm
15:50 18.8 °C 17.3 °C 1009.7 hPa ESE 20.9 km/h 20.9 km/h 91% 0 mm
15:55 18.8 °C 17.3 °C 1009.7 hPa ESE 11.3 km/h 17.7 km/h 91% 0 mm
16:00 18.9 °C 17.6 °C 1009.4 hPa SE 6.4 km/h 9.7 km/h 92% 0 mm
16:05 19 °C 17.5 °C 1009.4 hPa ESE 14.5 km/h 14.5 km/h 91% 0 mm
16:10 19 °C 17.5 °C 1009 hPa SSE 9.7 km/h 12.9 km/h 91% 0 mm
16:15 19.1 °C 17.6 °C 1009 hPa SE 12.9 km/h 16.1 km/h 91% 0 mm
16:20 19.2 °C 17.7 °C 1009 hPa SSE 8 km/h 16.1 km/h 91% 0 mm
16:25 19.3 °C 17.8 °C 1009 hPa SE 11.3 km/h 20.9 km/h 91% 0 mm
16:30 19.5 °C 18 °C 1008.7 hPa SE 14.5 km/h 20.9 km/h 91% 0 mm
16:35 19.6 °C 18.1 °C 1008.7 hPa ESE 9.7 km/h 17.7 km/h 91% 0 mm
16:36 19.6 °C 18.1 °C 1008.7 hPa SE 11.3 km/h 17.7 km/h 91% 0 mm
16:41 19.5 °C 17.8 °C 1008.7 hPa SE 6.4 km/h 12.9 km/h 90% 0 mm
16:46 19.4 °C 17.6 °C 1009 hPa SSE 3.2 km/h 12.9 km/h 89% 0 mm
16:51 19.6 °C 17.9 °C 1009 hPa SSE 11.3 km/h 12.9 km/h 90% 0 mm
16:56 19.6 °C 17.8 °C 1009 hPa South 3.2 km/h 11.3 km/h 89% 0 mm
17:01 19.8 °C 17.9 °C 1009 hPa SSW 4.8 km/h 6.4 km/h 89% 0 mm
17:06 19.8 °C 17.7 °C 1008.7 hPa South 3.2 km/h 9.7 km/h 88% 0 mm
17:11 19.8 °C 17.8 °C 1008.7 hPa South 3.2 km/h 6.4 km/h 88% 0 mm
17:16 20.2 °C 18.2 °C 1008.7 hPa SSW 4.8 km/h 6.4 km/h 88% 0 mm
17:21 20.2 °C 18 °C 1008.4 hPa West 3.2 km/h 9.7 km/h 87% 0 mm
17:26 20.2 °C 17.9 °C 1008.4 hPa WSW 6.4 km/h 9.7 km/h 87% 0 mm
17:31 20.2 °C 17.8 °C 1008.4 hPa SW 4.8 km/h 9.7 km/h 86% 0 mm
17:36 20.2 °C 17.9 °C 1008.4 hPa Calm   8 km/h 87% 0 mm
17:41 20.2 °C 18 °C 1008.4 hPa SW 1.6 km/h 3.2 km/h 87% 0 mm
17:46 20.2 °C 17.8 °C 1008.4 hPa SW 3.2 km/h 4.8 km/h 86% 0 mm
17:52 20.2 °C 17.6 °C 1008 hPa WSW 3.2 km/h 6.4 km/h 85% 0 mm
17:57 20.3 °C 17.6 °C 1008 hPa SW 6.4 km/h 8 km/h 84% 0 mm
18:02 20.3 °C 17.5 °C 1008 hPa SSW 3.2 km/h 6.4 km/h 84% 0 mm
18:07 20.3 °C 17.7 °C 1008 hPa SSW 1.6 km/h 4.8 km/h 85% 0 mm
18:12 20.4 °C 17.8 °C 1008.4 hPa West 1.6 km/h 4.8 km/h 85% 0 mm
18:17 20.4 °C 17.9 °C 1008.4 hPa West 1.6 km/h 3.2 km/h 86% 0 mm
18:22 20.3 °C 17.7 °C 1008.4 hPa NW 1.6 km/h 6.4 km/h 85% 0 mm
18:27 20.1 °C 17.7 °C 1008.4 hPa NNW 1.6 km/h 3.2 km/h 86% 0 mm
18:32 20 °C 17.6 °C 1008.4 hPa WNW 6.4 km/h 8 km/h 86% 0 mm
18:37 19.9 °C 17.7 °C 1008.7 hPa NW 3.2 km/h 6.4 km/h 87% 0 mm
18:42 19.8 °C 17.6 °C 1008.7 hPa NW 8 km/h 8 km/h 87% 0 mm
18:48 19.7 °C 17.4 °C 1008.7 hPa NW 6.4 km/h 11.3 km/h 87% 0 mm
18:53 19.6 °C 17.3 °C 1008.7 hPa NW 4.8 km/h 8 km/h 87% 0 mm
18:58 19.5 °C 17.3 °C 1008.7 hPa NW 6.4 km/h 6.4 km/h 87% 0 mm
19:03 19.4 °C 17.3 °C 1008.7 hPa NW 3.2 km/h 6.4 km/h 88% 0 mm
19:08 19.4 °C 17.3 °C 1009 hPa NW 3.2 km/h 6.4 km/h 88% 0 mm
19:13 19.4 °C 17.3 °C 1009 hPa NW 6.4 km/h 6.4 km/h 88% 0 mm
19:18 19.3 °C 17.3 °C 1009 hPa NW 4.8 km/h 8 km/h 88% 0 mm
19:23 19.3 °C 17.2 °C 1009 hPa NW 3.2 km/h 4.8 km/h 88% 0 mm
19:28 19.3 °C 17.2 °C 1008.7 hPa North 1.6 km/h 3.2 km/h 88% 0 mm
19:33 19.3 °C 17.2 °C 1008.7 hPa Calm   1.6 km/h 88% 0 mm
19:38 19.2 °C 17.2 °C 1008.7 hPa SE 3.2 km/h 4.8 km/h 88% 0 mm
19:43 19.2 °C 17.4 °C 1009 hPa SE 1.6 km/h 3.2 km/h 89% 0 mm
19:48 19.2 °C 17.3 °C 1009 hPa SE 3.2 km/h 3.2 km/h 89% 0 mm
19:53 19.1 °C 17.2 °C 1009 hPa SE 6.4 km/h 6.4 km/h 89% 0 mm
19:58 18.9 °C 17.3 °C 1009 hPa SSE 8 km/h 9.7 km/h 90% 0 mm
20:03 18.9 °C 17.2 °C 1008.7 hPa ESE 4.8 km/h 6.4 km/h 90% 0 mm
20:08 18.8 °C 17.1 °C 1008.7 hPa SSE 3.2 km/h 4.8 km/h 90% 0 mm
20:13 18.7 °C 17 °C 1008.7 hPa SSE 4.8 km/h 4.8 km/h 90% 0 mm
20:19 18.6 °C 16.9 °C 1008.7 hPa SE 3.2 km/h 4.8 km/h 90% 0 mm
20:24 18.4 °C 16.9 °C 1008.7 hPa ESE 3.2 km/h 4.8 km/h 91% 0 mm
20:29 18.3 °C 16.8 °C 1008.7 hPa SE 1.6 km/h 4.8 km/h 91% 0 mm
20:34 18.2 °C 16.7 °C 1008.7 hPa ESE 3.2 km/h 3.2 km/h 91% 0 mm
20:39 18.2 °C 16.7 °C 1008.7 hPa SE 3.2 km/h 3.2 km/h 91% 0 mm
20:44 18.1 °C 16.8 °C 1008.7 hPa Calm   3.2 km/h 92% 0 mm
20:49 17.9 °C 16.6 °C 1008.7 hPa Calm     92% 0 mm
20:54 17.6 °C 16.1 °C 1009 hPa SE 1.6 km/h 1.6 km/h 91% 0 mm
20:59 17.3 °C 16 °C 1009 hPa Calm   1.6 km/h 92% 0 mm
21:04 17.2 °C 16 °C 1009 hPa Calm     93% 0 mm
21:09 17.1 °C 16 °C 1009 hPa Calm     93% 0 mm
21:14 17.1 °C 16.1 °C 1009 hPa Calm     94% 0 mm
21:19 17 °C 16 °C 1009 hPa Calm     94% 0 mm
21:24 16.8 °C 15.8 °C 1009 hPa Calm     94% 0 mm
21:29 16.8 °C 15.9 °C 1009 hPa Calm     94% 0 mm
21:34 16.9 °C 15.9 °C 1009.4 hPa SE 1.6 km/h 1.6 km/h 94% 0 mm
21:39 16.9 °C 16 °C 1009.4 hPa Calm     94% 0 mm
21:44 17 °C 16 °C 1009.4 hPa Calm     94% 0 mm
21:49 16.9 °C 16 °C 1009.4 hPa Calm     94% 0 mm
21:54 17 °C 16 °C 1009.7 hPa Calm     94% 0 mm
21:59 17.1 °C 16.1 °C 1009.7 hPa SE 1.6 km/h 1.6 km/h 94% 0 mm
22:04 17 °C 16 °C 1009.7 hPa SE 1.6 km/h 1.6 km/h 94% 0 mm
22:09 16.9 °C 16 °C 1009.7 hPa Calm     94% 0 mm
22:14 16.8 °C 15.9 °C 1009.7 hPa SE 1.6 km/h 1.6 km/h 94% 0 mm
22:19 16.8 °C 15.9 °C 1009.7 hPa Calm   1.6 km/h 94% 0 mm
22:24 16.8 °C 15.9 °C 1009.7 hPa SE 1.6 km/h 3.2 km/h 94% 0 mm
22:29 16.8 °C 15.9 °C 1010 hPa SSE 1.6 km/h 1.6 km/h 94% 0 mm
22:35 16.9 °C 15.9 °C 1010 hPa SSE 1.6 km/h 4.8 km/h 94% 0 mm
22:40 16.9 °C 16 °C 1010 hPa SSE 3.2 km/h 3.2 km/h 94% 0 mm
22:45 17 °C 16 °C 1010 hPa SSE 1.6 km/h 3.2 km/h 94% 0 mm
22:50 17.1 °C 16.1 °C 1010 hPa SE 1.6 km/h 3.2 km/h 94% 0 mm
22:55 17.1 °C 16.1 °C 1010 hPa SSE 1.6 km/h 1.6 km/h 94% 0 mm
23:00 17.1 °C 16.1 °C 1010 hPa Calm   1.6 km/h 94% 0 mm
23:05 17.2 °C 16.2 °C 1010 hPa Calm   3.2 km/h 94% 0 mm
23:06 17.2 °C 16.2 °C 1010 hPa Calm   3.2 km/h 94% 0 mm
23:11 17.2 °C 16.2 °C 1010 hPa South 1.6 km/h 1.6 km/h 94% 0 mm
23:16 17.2 °C 16.2 °C 1010 hPa Calm   3.2 km/h 94% 0 mm
23:21 17.2 °C 16.2 °C 1010 hPa SSE 3.2 km/h 3.2 km/h 94% 0 mm
23:26 17.1 °C 16.1 °C 1010 hPa South 3.2 km/h 4.8 km/h 94% 0 mm
23:31 17 °C 16 °C 1010 hPa South 1.6 km/h 3.2 km/h 94% 0 mm
23:36 17 °C 16 °C 1010 hPa South 1.6 km/h 3.2 km/h 94% 0 mm
23:41 17.1 °C 16.1 °C 1010 hPa South 1.6 km/h 4.8 km/h 94% 0 mm
23:46 17.1 °C 16.1 °C 1010 hPa SSW 1.6 km/h 4.8 km/h 94% 0 mm
23:51 17.1 °C 16.1 °C 1010 hPa SSW 3.2 km/h 3.2 km/h 94% 0 mm
23:56 17.1 °C 16.1 °C 1010 hPa SSW 1.6 km/h 3.2 km/h 94% 0 mm
Compliments of Weather Underground